Year,Month,Day,Hour,Minute,Value (Times are PST for temperature in C)
2019,03,29,00,00,6.70
2019,03,29,00,01,6.70
2019,03,29,00,02,6.70
2019,03,29,00,03,6.70
2019,03,29,00,04,6.60
2019,03,29,00,05,6.60
2019,03,29,00,06,6.60
2019,03,29,00,07,6.60
2019,03,29,00,08,6.60
2019,03,29,00,09,6.60
2019,03,29,00,10,6.60
2019,03,29,00,11,6.70
2019,03,29,00,12,6.70
2019,03,29,00,13,6.70
2019,03,29,00,14,6.70
2019,03,29,00,15,6.80
2019,03,29,00,16,6.80
2019,03,29,00,17,6.80
2019,03,29,00,18,6.80
2019,03,29,00,19,6.80
2019,03,29,00,20,6.70
2019,03,29,00,21,6.70
2019,03,29,00,22,6.70
2019,03,29,00,23,6.70
2019,03,29,00,24,6.70
2019,03,29,00,25,6.60
2019,03,29,00,26,6.60
2019,03,29,00,27,6.60
2019,03,29,00,28,6.60
2019,03,29,00,29,6.50
2019,03,29,00,30,6.50
2019,03,29,00,31,6.40
2019,03,29,00,32,6.40
2019,03,29,00,33,6.40
2019,03,29,00,34,6.40
2019,03,29,00,35,6.40
2019,03,29,00,36,6.40
2019,03,29,00,37,6.50
2019,03,29,00,38,6.50
2019,03,29,00,39,6.60
2019,03,29,00,40,6.70
2019,03,29,00,41,6.80
2019,03,29,00,42,6.80
2019,03,29,00,43,6.90
2019,03,29,00,44,7.00
2019,03,29,00,45,7.00
2019,03,29,00,46,7.00
2019,03,29,00,47,7.10
2019,03,29,00,48,7.10
2019,03,29,00,49,7.10
2019,03,29,00,50,7.10
2019,03,29,00,51,7.10
2019,03,29,00,52,7.20
2019,03,29,00,53,7.20
2019,03,29,00,54,7.20
2019,03,29,00,55,7.20
2019,03,29,00,56,7.20
2019,03,29,00,57,7.20
2019,03,29,00,58,7.20
2019,03,29,00,59,7.20
2019,03,29,01,00,7.20
2019,03,29,01,01,7.20
2019,03,29,01,02,7.10
2019,03,29,01,03,7.10
2019,03,29,01,04,7.00
2019,03,29,01,05,7.00
2019,03,29,01,06,7.00
2019,03,29,01,07,6.90
2019,03,29,01,08,6.90
2019,03,29,01,09,6.90
2019,03,29,01,10,6.90
2019,03,29,01,11,6.80
2019,03,29,01,12,6.80
2019,03,29,01,13,6.80
2019,03,29,01,14,6.80
2019,03,29,01,15,6.80
2019,03,29,01,16,6.90
2019,03,29,01,17,6.90
2019,03,29,01,18,6.90
2019,03,29,01,19,6.90
2019,03,29,01,20,6.90
2019,03,29,01,21,6.90
2019,03,29,01,22,6.90
2019,03,29,01,23,6.90
2019,03,29,01,24,6.90
2019,03,29,01,25,6.90
2019,03,29,01,26,6.90
2019,03,29,01,27,7.00
2019,03,29,01,28,7.00
2019,03,29,01,29,7.10
2019,03,29,01,30,7.10
2019,03,29,01,31,7.10
2019,03,29,01,32,7.20
2019,03,29,01,33,7.20
2019,03,29,01,34,7.20
2019,03,29,01,35,7.20
2019,03,29,01,36,7.20
2019,03,29,01,37,7.20
2019,03,29,01,38,7.10
2019,03,29,01,39,7.10
2019,03,29,01,40,7.00
2019,03,29,01,41,7.00
2019,03,29,01,42,6.90
2019,03,29,01,43,6.90
2019,03,29,01,44,6.80
2019,03,29,01,45,6.80
2019,03,29,01,46,6.70
2019,03,29,01,47,6.70
2019,03,29,01,48,6.70
2019,03,29,01,49,6.70
2019,03,29,01,50,6.70
2019,03,29,01,51,6.70
2019,03,29,01,52,6.70
2019,03,29,01,53,6.60
2019,03,29,01,54,6.60
2019,03,29,01,55,6.70
2019,03,29,01,56,6.70
2019,03,29,01,57,6.70
2019,03,29,01,58,6.80
2019,03,29,01,59,6.70
2019,03,29,02,00,6.70
2019,03,29,02,01,6.70
2019,03,29,02,02,6.70
2019,03,29,02,03,6.60
2019,03,29,02,04,6.60
2019,03,29,02,05,6.60
2019,03,29,02,06,6.50
2019,03,29,02,07,6.50
2019,03,29,02,08,6.50
2019,03,29,02,09,6.40
2019,03,29,02,10,6.40
2019,03,29,02,11,6.40
2019,03,29,02,12,6.30
2019,03,29,02,13,6.30
2019,03,29,02,14,6.30
2019,03,29,02,15,6.20
2019,03,29,02,16,6.20
2019,03,29,02,17,6.10
2019,03,29,02,18,6.10
2019,03,29,02,19,6.10
2019,03,29,02,20,6.00
2019,03,29,02,21,6.00
2019,03,29,02,22,5.90
2019,03,29,02,23,5.90
2019,03,29,02,24,5.90
2019,03,29,02,25,5.80
2019,03,29,02,26,5.80
2019,03,29,02,27,5.80
2019,03,29,02,28,5.90
2019,03,29,02,29,5.90
2019,03,29,02,30,5.90
2019,03,29,02,31,5.90
2019,03,29,02,32,5.90
2019,03,29,02,33,5.80
2019,03,29,02,34,5.80
2019,03,29,02,35,5.80
2019,03,29,02,36,5.70
2019,03,29,02,37,5.70
2019,03,29,02,38,5.70
2019,03,29,02,39,5.70
2019,03,29,02,40,5.60
2019,03,29,02,41,5.60
2019,03,29,02,42,5.60
2019,03,29,02,43,5.60
2019,03,29,02,44,5.60
2019,03,29,02,45,5.60
2019,03,29,02,46,5.50
2019,03,29,02,47,5.50
2019,03,29,02,48,5.50
2019,03,29,02,49,5.40
2019,03,29,02,50,5.40
2019,03,29,02,51,5.40
2019,03,29,02,52,5.30
2019,03,29,02,53,5.30
2019,03,29,02,54,5.20
2019,03,29,02,55,5.20
2019,03,29,02,56,5.20
2019,03,29,02,57,5.10
2019,03,29,02,58,5.10
2019,03,29,02,59,5.10
2019,03,29,03,00,5.10
2019,03,29,03,01,5.10
2019,03,29,03,02,5.00
2019,03,29,03,03,5.00
2019,03,29,03,04,5.00
2019,03,29,03,05,5.00
2019,03,29,03,06,5.00
2019,03,29,03,07,5.10
2019,03,29,03,08,5.10
2019,03,29,03,09,5.20
2019,03,29,03,10,5.20
2019,03,29,03,11,5.30
2019,03,29,03,12,5.30
2019,03,29,03,13,5.30
2019,03,29,03,14,5.30
2019,03,29,03,15,5.30
2019,03,29,03,16,5.30
2019,03,29,03,17,5.20
2019,03,29,03,18,5.20
2019,03,29,03,19,5.20
2019,03,29,03,20,5.20
2019,03,29,03,21,5.10
2019,03,29,03,22,5.10
2019,03,29,03,23,5.10
2019,03,29,03,24,5.10
2019,03,29,03,25,5.10
2019,03,29,03,26,5.10
2019,03,29,03,27,5.10
2019,03,29,03,28,5.10
2019,03,29,03,29,5.10
2019,03,29,03,30,5.10
2019,03,29,03,31,5.10
2019,03,29,03,32,5.20
2019,03,29,03,33,5.20
2019,03,29,03,34,5.30
2019,03,29,03,35,5.30
2019,03,29,03,36,5.30
2019,03,29,03,37,5.30
2019,03,29,03,38,5.30
2019,03,29,03,39,5.40
2019,03,29,03,40,5.40
2019,03,29,03,41,5.40
2019,03,29,03,42,5.50
2019,03,29,03,43,5.50
2019,03,29,03,44,5.60
2019,03,29,03,45,5.70
2019,03,29,03,46,5.80
2019,03,29,03,47,5.90
2019,03,29,03,48,6.00
2019,03,29,03,49,6.00
2019,03,29,03,50,6.10
2019,03,29,03,51,6.20
2019,03,29,03,52,6.30
2019,03,29,03,53,6.30
2019,03,29,03,54,6.30
2019,03,29,03,55,6.40
2019,03,29,03,56,6.40
2019,03,29,03,57,6.40
2019,03,29,03,58,6.40
2019,03,29,03,59,6.40
2019,03,29,04,00,6.40
2019,03,29,04,01,6.30
2019,03,29,04,02,6.40
2019,03,29,04,03,6.50
2019,03,29,04,04,6.50
2019,03,29,04,05,6.50
2019,03,29,04,06,6.40
2019,03,29,04,07,6.40
2019,03,29,04,08,6.40
2019,03,29,04,09,6.30
2019,03,29,04,10,6.30
2019,03,29,04,11,6.40
2019,03,29,04,12,6.40
2019,03,29,04,13,6.50
2019,03,29,04,14,6.50
2019,03,29,04,15,6.50
2019,03,29,04,16,6.50
2019,03,29,04,17,6.50
2019,03,29,04,18,6.50
2019,03,29,04,19,6.60
2019,03,29,04,20,6.60
2019,03,29,04,21,6.60
2019,03,29,04,22,6.60
2019,03,29,04,23,6.70
2019,03,29,04,24,6.70
2019,03,29,04,25,6.70
2019,03,29,04,26,6.70
2019,03,29,04,27,6.70
2019,03,29,04,28,6.80
2019,03,29,04,29,6.80
2019,03,29,04,30,6.90
2019,03,29,04,31,6.90
2019,03,29,04,32,6.90
2019,03,29,04,33,6.80
2019,03,29,04,34,6.80
2019,03,29,04,35,6.70
2019,03,29,04,36,6.70
2019,03,29,04,37,6.70
2019,03,29,04,38,6.70
2019,03,29,04,39,6.60
2019,03,29,04,40,6.70
2019,03,29,04,41,6.60
2019,03,29,04,42,6.60
2019,03,29,04,43,6.60
2019,03,29,04,44,6.60
2019,03,29,04,45,6.60
2019,03,29,04,46,6.60
2019,03,29,04,47,6.60
2019,03,29,04,48,6.70
2019,03,29,04,49,6.70
2019,03,29,04,50,6.70
2019,03,29,04,51,6.70
2019,03,29,04,52,6.70
2019,03,29,04,53,6.70
2019,03,29,04,54,6.60
2019,03,29,04,55,6.60
2019,03,29,04,56,6.60
2019,03,29,04,57,6.60
2019,03,29,04,58,6.50
2019,03,29,04,59,6.50
2019,03,29,05,00,6.50
2019,03,29,05,01,6.50
2019,03,29,05,02,6.50
2019,03,29,05,03,6.60
2019,03,29,05,04,6.60
2019,03,29,05,05,6.70
2019,03,29,05,06,6.80
2019,03,29,05,07,6.80
2019,03,29,05,08,6.80
2019,03,29,05,09,6.80
2019,03,29,05,10,6.70
2019,03,29,05,11,6.70
2019,03,29,05,12,6.70
2019,03,29,05,13,6.70
2019,03,29,05,14,6.70
2019,03,29,05,15,6.70
2019,03,29,05,16,6.70
2019,03,29,05,17,6.60
2019,03,29,05,18,6.60
2019,03,29,05,19,6.60
2019,03,29,05,20,6.50
2019,03,29,05,21,6.40
2019,03,29,05,22,6.40
2019,03,29,05,23,6.30
2019,03,29,05,24,6.30
2019,03,29,05,25,6.20
2019,03,29,05,26,6.20
2019,03,29,05,27,6.20
2019,03,29,05,28,6.20
2019,03,29,05,29,6.20
2019,03,29,05,30,6.20
2019,03,29,05,31,6.10
2019,03,29,05,32,6.10
2019,03,29,05,33,6.00
2019,03,29,05,34,6.00
2019,03,29,05,35,5.90
2019,03,29,05,36,5.90
2019,03,29,05,37,5.90
2019,03,29,05,38,5.80
2019,03,29,05,39,5.80
2019,03,29,05,40,5.80
2019,03,29,05,41,5.80
2019,03,29,05,42,5.80
2019,03,29,05,43,5.80
2019,03,29,05,44,5.80
2019,03,29,05,45,5.80
2019,03,29,05,46,5.80
2019,03,29,05,47,5.70
2019,03,29,05,48,5.70
2019,03,29,05,49,5.80
2019,03,29,05,50,5.80
2019,03,29,05,51,5.80
2019,03,29,05,52,5.80
2019,03,29,05,53,5.80
2019,03,29,05,54,5.80
2019,03,29,05,55,5.80
2019,03,29,05,56,5.70
2019,03,29,05,57,5.70
2019,03,29,05,58,5.70
2019,03,29,05,59,5.60
2019,03,29,06,00,5.60
2019,03,29,06,01,5.60
2019,03,29,06,02,5.60
2019,03,29,06,03,5.60
2019,03,29,06,04,5.70
2019,03,29,06,05,5.70
2019,03,29,06,06,5.60
2019,03,29,06,07,5.60
2019,03,29,06,08,5.60
2019,03,29,06,09,5.60
2019,03,29,06,10,5.60
2019,03,29,06,11,5.60
2019,03,29,06,12,5.60
2019,03,29,06,13,5.60
2019,03,29,06,14,5.60
2019,03,29,06,15,5.60
2019,03,29,06,16,5.60
2019,03,29,06,17,5.60
2019,03,29,06,18,5.70
2019,03,29,06,19,5.70
2019,03,29,06,20,5.70
2019,03,29,06,21,5.70
2019,03,29,06,22,5.70
2019,03,29,06,23,5.70
2019,03,29,06,24,5.70
2019,03,29,06,25,5.70
2019,03,29,06,26,5.70
2019,03,29,06,27,5.70
2019,03,29,06,28,5.70
2019,03,29,06,29,5.70
2019,03,29,06,30,5.80
2019,03,29,06,31,5.80
2019,03,29,06,32,5.80
2019,03,29,06,33,5.80
2019,03,29,06,34,5.80
2019,03,29,06,35,5.80
2019,03,29,06,36,5.80
2019,03,29,06,37,5.70
2019,03,29,06,38,5.70
2019,03,29,06,39,5.60
2019,03,29,06,40,5.60
2019,03,29,06,41,5.60
2019,03,29,06,42,5.50
2019,03,29,06,43,5.50
2019,03,29,06,44,5.40
2019,03,29,06,45,5.40
2019,03,29,06,46,5.30
2019,03,29,06,47,5.30
2019,03,29,06,48,5.30
2019,03,29,06,49,5.30
2019,03,29,06,50,5.20
2019,03,29,06,51,5.20
2019,03,29,06,52,5.10
2019,03,29,06,53,5.10
2019,03,29,06,54,5.10
2019,03,29,06,55,5.10
2019,03,29,06,56,5.10
2019,03,29,06,57,5.10
2019,03,29,06,58,5.10
2019,03,29,06,59,5.10
2019,03,29,07,00,5.10
2019,03,29,07,01,5.10
2019,03,29,07,02,5.10
2019,03,29,07,03,5.10
2019,03,29,07,04,5.10
2019,03,29,07,05,5.10
2019,03,29,07,06,5.10
2019,03,29,07,07,5.10
2019,03,29,07,08,5.10
2019,03,29,07,09,5.20
2019,03,29,07,10,5.10
2019,03,29,07,11,5.10
2019,03,29,07,12,5.10
2019,03,29,07,13,5.00
2019,03,29,07,14,5.00
2019,03,29,07,15,4.90
2019,03,29,07,16,4.80
2019,03,29,07,17,4.80
2019,03,29,07,18,4.80
2019,03,29,07,19,4.80
2019,03,29,07,20,4.70
2019,03,29,07,21,4.70
2019,03,29,07,22,4.70
2019,03,29,07,23,4.70
2019,03,29,07,24,4.70
2019,03,29,07,25,4.70
2019,03,29,07,26,4.70
2019,03,29,07,27,4.70
2019,03,29,07,28,4.70
2019,03,29,07,29,4.60
2019,03,29,07,30,4.60
2019,03,29,07,31,4.70
2019,03,29,07,32,4.70
2019,03,29,07,33,4.70
2019,03,29,07,34,4.70
2019,03,29,07,35,4.70
2019,03,29,07,36,4.80
2019,03,29,07,37,4.80
2019,03,29,07,38,4.80
2019,03,29,07,39,4.90
2019,03,29,07,40,4.90
2019,03,29,07,41,4.90
2019,03,29,07,42,5.00
2019,03,29,07,43,5.00
2019,03,29,07,44,5.10
2019,03,29,07,45,5.10
2019,03,29,07,46,5.10
2019,03,29,07,47,5.10
2019,03,29,07,48,5.10
2019,03,29,07,49,5.20
2019,03,29,07,50,5.20
2019,03,29,07,51,5.30
2019,03,29,07,52,5.30
2019,03,29,07,53,5.40
2019,03,29,07,54,5.50
2019,03,29,07,55,5.60
2019,03,29,07,56,5.70
2019,03,29,07,57,5.80
2019,03,29,07,58,5.90
2019,03,29,07,59,6.10
2019,03,29,08,00,6.20
2019,03,29,08,01,6.30
2019,03,29,08,02,6.30
2019,03,29,08,03,6.40
2019,03,29,08,04,6.50
2019,03,29,08,05,6.60
2019,03,29,08,06,6.70
2019,03,29,08,07,6.80
2019,03,29,08,08,6.90
2019,03,29,08,09,7.00
2019,03,29,08,10,7.20
2019,03,29,08,11,7.30
2019,03,29,08,12,7.40
2019,03,29,08,13,7.50
2019,03,29,08,14,7.60
2019,03,29,08,15,7.60
2019,03,29,08,16,7.70
2019,03,29,08,17,7.70
2019,03,29,08,18,7.70
2019,03,29,08,19,7.80
2019,03,29,08,20,7.80
2019,03,29,08,21,7.80
2019,03,29,08,22,7.90
2019,03,29,08,23,7.90
2019,03,29,08,24,7.90
2019,03,29,08,25,7.90
2019,03,29,08,26,8.00
2019,03,29,08,27,8.00
2019,03,29,08,28,8.10
2019,03,29,08,29,8.10
2019,03,29,08,30,8.20
2019,03,29,08,31,8.20
2019,03,29,08,32,8.30
2019,03,29,08,33,8.30
2019,03,29,08,34,8.40
2019,03,29,08,35,8.40
2019,03,29,08,36,8.40
2019,03,29,08,37,8.40
2019,03,29,08,38,8.50
2019,03,29,08,39,8.50
2019,03,29,08,40,8.60
2019,03,29,08,41,8.60
2019,03,29,08,42,8.70
2019,03,29,08,43,8.80
2019,03,29,08,44,8.80
2019,03,29,08,45,8.90
2019,03,29,08,46,8.90
2019,03,29,08,47,9.00
2019,03,29,08,48,9.00
2019,03,29,08,49,9.00
2019,03,29,08,50,9.10
2019,03,29,08,51,9.10
2019,03,29,08,52,9.20
2019,03,29,08,53,9.20
2019,03,29,08,54,9.20
2019,03,29,08,55,9.30
2019,03,29,08,56,9.30
2019,03,29,08,57,9.30
2019,03,29,08,58,9.40
2019,03,29,08,59,9.40
2019,03,29,09,00,9.40
2019,03,29,09,01,9.50
2019,03,29,09,02,9.50
2019,03,29,09,03,9.60
2019,03,29,09,04,9.60
2019,03,29,09,05,9.60
2019,03,29,09,06,9.60
2019,03,29,09,07,9.60
2019,03,29,09,08,9.70
2019,03,29,09,09,9.70
2019,03,29,09,10,9.70
2019,03,29,09,11,9.70
2019,03,29,09,12,9.80
2019,03,29,09,13,9.80
2019,03,29,09,14,9.80
2019,03,29,09,15,9.80
2019,03,29,09,16,9.80
2019,03,29,09,17,9.90
2019,03,29,09,18,9.90
2019,03,29,09,19,9.90
2019,03,29,09,20,9.90
2019,03,29,09,21,10.00
2019,03,29,09,22,10.00
2019,03,29,09,23,10.10
2019,03,29,09,24,10.10
2019,03,29,09,25,10.10
2019,03,29,09,26,10.10
2019,03,29,09,27,10.10
2019,03,29,09,28,10.20
2019,03,29,09,29,10.20
2019,03,29,09,30,10.20
2019,03,29,09,31,10.20
2019,03,29,09,32,10.20
2019,03,29,09,33,10.20
2019,03,29,09,34,10.20
2019,03,29,09,35,10.20
2019,03,29,09,36,10.20
2019,03,29,09,37,10.30
2019,03,29,09,38,10.30
2019,03,29,09,39,10.30
2019,03,29,09,40,10.30
2019,03,29,09,41,10.40
2019,03,29,09,42,10.40
2019,03,29,09,43,10.40
2019,03,29,09,44,10.50
2019,03,29,09,45,10.50
2019,03,29,09,46,10.60
2019,03,29,09,47,10.60
2019,03,29,09,48,10.60
2019,03,29,09,49,10.70
2019,03,29,09,50,10.70
2019,03,29,09,51,10.70
2019,03,29,09,52,10.70
2019,03,29,09,53,10.70
2019,03,29,09,54,10.70
2019,03,29,09,55,10.70
2019,03,29,09,56,10.70
2019,03,29,09,57,10.80
2019,03,29,09,58,10.80
2019,03,29,09,59,10.80
2019,03,29,10,00,10.80
2019,03,29,10,01,10.80
2019,03,29,10,02,10.80
2019,03,29,10,03,10.90
2019,03,29,10,04,10.90
2019,03,29,10,05,10.90
2019,03,29,10,06,10.90
2019,03,29,10,07,11.00
2019,03,29,10,08,11.00
2019,03,29,10,09,11.10
2019,03,29,10,10,11.20
2019,03,29,10,11,11.20
2019,03,29,10,12,11.30
2019,03,29,10,13,11.30
2019,03,29,10,14,11.30
2019,03,29,10,15,11.30
2019,03,29,10,16,11.30
2019,03,29,10,17,11.30
2019,03,29,10,18,11.30
2019,03,29,10,19,11.30
2019,03,29,10,20,11.30
2019,03,29,10,21,11.20
2019,03,29,10,22,11.20
2019,03,29,10,23,11.20
2019,03,29,10,24,11.20
2019,03,29,10,25,11.20
2019,03,29,10,26,11.20
2019,03,29,10,27,11.20
2019,03,29,10,28,11.30
2019,03,29,10,29,11.30
2019,03,29,10,30,11.30
2019,03,29,10,31,11.20
2019,03,29,10,32,11.10
2019,03,29,10,33,11.10
2019,03,29,10,34,11.10
2019,03,29,10,35,11.10
2019,03,29,10,36,11.10
2019,03,29,10,37,11.00
2019,03,29,10,38,11.00
2019,03,29,10,39,11.00
2019,03,29,10,40,11.00
2019,03,29,10,41,11.00
2019,03,29,10,42,10.90
2019,03,29,10,43,10.90
2019,03,29,10,44,10.80
2019,03,29,10,45,10.80
2019,03,29,10,46,10.80
2019,03,29,10,47,10.70
2019,03,29,10,48,10.70
2019,03,29,10,49,10.70
2019,03,29,10,50,10.70
2019,03,29,10,51,10.70
2019,03,29,10,52,10.80
2019,03,29,10,53,10.80
2019,03,29,10,54,10.80
2019,03,29,10,55,10.70
2019,03,29,10,56,10.70
2019,03,29,10,57,10.70
2019,03,29,10,58,10.70
2019,03,29,10,59,10.80
2019,03,29,11,00,10.80
2019,03,29,11,01,10.80
2019,03,29,11,02,10.80
2019,03,29,11,03,10.90
2019,03,29,11,04,10.90
2019,03,29,11,05,10.90
2019,03,29,11,06,10.90
2019,03,29,11,07,10.90
2019,03,29,11,08,10.90
2019,03,29,11,09,10.90
2019,03,29,11,10,10.90
2019,03,29,11,11,10.80
2019,03,29,11,12,10.80
2019,03,29,11,13,10.80
2019,03,29,11,14,10.80
2019,03,29,11,15,10.80
2019,03,29,11,16,10.80
2019,03,29,11,17,10.80
2019,03,29,11,18,10.80
2019,03,29,11,19,10.80
2019,03,29,11,20,10.90
2019,03,29,11,21,10.90
2019,03,29,11,22,10.90
2019,03,29,11,23,11.00
2019,03,29,11,24,11.00
2019,03,29,11,25,11.10
2019,03,29,11,26,11.10
2019,03,29,11,27,11.20
2019,03,29,11,28,11.30
2019,03,29,11,29,11.40
2019,03,29,11,30,11.40
2019,03,29,11,31,11.50
2019,03,29,11,32,11.50
2019,03,29,11,33,11.60
2019,03,29,11,34,11.60
2019,03,29,11,35,11.60
2019,03,29,11,36,11.60
2019,03,29,11,37,11.70
2019,03,29,11,38,11.70
2019,03,29,11,39,11.70
2019,03,29,11,40,11.70
2019,03,29,11,41,11.70
2019,03,29,11,42,11.70
2019,03,29,11,43,11.70
2019,03,29,11,44,11.70
2019,03,29,11,45,11.70
2019,03,29,11,46,11.60
2019,03,29,11,47,11.70
2019,03,29,11,48,11.70
2019,03,29,11,49,11.60
2019,03,29,11,50,11.50
2019,03,29,11,51,11.50
2019,03,29,11,52,11.40
2019,03,29,11,53,11.40
2019,03,29,11,54,11.40
2019,03,29,11,55,11.40
2019,03,29,11,56,11.40
2019,03,29,11,57,11.40
2019,03,29,11,58,11.50
2019,03,29,11,59,11.50
2019,03,29,12,00,11.60
2019,03,29,12,01,11.60
2019,03,29,12,02,11.60
2019,03,29,12,03,11.70
2019,03,29,12,04,11.70
2019,03,29,12,05,11.80
2019,03,29,12,06,11.80
2019,03,29,12,07,11.80
2019,03,29,12,08,11.80
2019,03,29,12,09,11.80
2019,03,29,12,10,11.90
2019,03,29,12,11,11.90
2019,03,29,12,12,11.90
2019,03,29,12,13,12.00
2019,03,29,12,14,12.10
2019,03,29,12,15,12.20
2019,03,29,12,16,12.20
2019,03,29,12,17,12.20
2019,03,29,12,18,12.30
2019,03,29,12,19,12.30
2019,03,29,12,20,12.30
2019,03,29,12,21,12.30
2019,03,29,12,22,12.30
2019,03,29,12,23,12.40
2019,03,29,12,24,12.40
2019,03,29,12,25,12.50
2019,03,29,12,26,12.60
2019,03,29,12,27,12.60
2019,03,29,12,28,12.70
2019,03,29,12,29,12.70
2019,03,29,12,30,12.60
2019,03,29,12,31,12.60
2019,03,29,12,32,12.50
2019,03,29,12,33,12.50
2019,03,29,12,34,12.50
2019,03,29,12,35,12.50
2019,03,29,12,36,12.50
2019,03,29,12,37,12.50
2019,03,29,12,38,12.60
2019,03,29,12,39,12.60
2019,03,29,12,40,12.70
2019,03,29,12,41,12.80
2019,03,29,12,42,12.80
2019,03,29,12,43,12.80
2019,03,29,12,44,12.90
2019,03,29,12,45,12.90
2019,03,29,12,46,12.90
2019,03,29,12,47,13.00
2019,03,29,12,48,13.10
2019,03,29,12,49,13.10
2019,03,29,12,50,13.10
2019,03,29,12,51,13.10
2019,03,29,12,52,13.20
2019,03,29,12,53,13.30
2019,03,29,12,54,13.30
2019,03,29,12,55,13.30
2019,03,29,12,56,13.30
2019,03,29,12,57,13.30
2019,03,29,12,58,13.30
2019,03,29,12,59,13.30
2019,03,29,13,00,13.20
2019,03,29,13,01,13.20
2019,03,29,13,02,13.20
2019,03,29,13,03,13.20
2019,03,29,13,04,13.20
2019,03,29,13,05,13.20
2019,03,29,13,06,13.30
2019,03,29,13,07,13.30
2019,03,29,13,08,13.40
2019,03,29,13,09,13.30
2019,03,29,13,10,13.40
2019,03,29,13,11,13.40
2019,03,29,13,12,13.40
2019,03,29,13,13,13.40
2019,03,29,13,14,13.40
2019,03,29,13,15,13.30
2019,03,29,13,16,13.30
2019,03,29,13,17,13.30
2019,03,29,13,18,13.30
2019,03,29,13,19,13.40
2019,03,29,13,20,13.40
2019,03,29,13,21,13.50
2019,03,29,13,22,13.50
2019,03,29,13,23,13.40
2019,03,29,13,24,13.30
2019,03,29,13,25,13.20
2019,03,29,13,26,13.20
2019,03,29,13,27,13.10
2019,03,29,13,28,13.20
2019,03,29,13,29,13.20
2019,03,29,13,30,13.20
2019,03,29,13,31,13.20
2019,03,29,13,32,13.20
2019,03,29,13,33,13.10
2019,03,29,13,34,13.10
2019,03,29,13,35,13.10
2019,03,29,13,36,13.10
2019,03,29,13,37,13.10
2019,03,29,13,38,13.10
2019,03,29,13,39,13.10
2019,03,29,13,40,13.10
2019,03,29,13,41,13.20
2019,03,29,13,42,13.20
2019,03,29,13,43,13.20
2019,03,29,13,44,13.20
2019,03,29,13,45,13.30
2019,03,29,13,46,13.40
2019,03,29,13,47,13.60
2019,03,29,13,48,13.60
2019,03,29,13,49,13.70
2019,03,29,13,50,13.60
2019,03,29,13,51,13.50
2019,03,29,13,52,13.40
2019,03,29,13,53,13.40
2019,03,29,13,54,13.40
2019,03,29,13,55,13.30
2019,03,29,13,56,13.30
2019,03,29,13,57,13.20
2019,03,29,13,58,13.20
2019,03,29,13,59,13.20
2019,03,29,14,00,13.30
2019,03,29,14,01,13.20
2019,03,29,14,02,13.20
2019,03,29,14,03,13.30
2019,03,29,14,04,13.30
2019,03,29,14,05,13.50
2019,03,29,14,06,13.60
2019,03,29,14,07,13.70
2019,03,29,14,08,13.80
2019,03,29,14,09,13.90
2019,03,29,14,10,13.80
2019,03,29,14,11,13.90
2019,03,29,14,12,13.90
2019,03,29,14,13,13.80
2019,03,29,14,14,13.60
2019,03,29,14,15,13.60
2019,03,29,14,16,13.60
2019,03,29,14,17,13.60
2019,03,29,14,18,13.60
2019,03,29,14,19,13.80
2019,03,29,14,20,13.80
2019,03,29,14,21,13.90
2019,03,29,14,22,14.00
2019,03,29,14,23,14.10
2019,03,29,14,24,14.20
2019,03,29,14,25,14.20
2019,03,29,14,26,14.20
2019,03,29,14,27,14.20
2019,03,29,14,28,14.20
2019,03,29,14,29,14.10
2019,03,29,14,30,14.10
2019,03,29,14,31,14.10
2019,03,29,14,32,14.20
2019,03,29,14,33,14.20
2019,03,29,14,34,14.20
2019,03,29,14,35,14.10
2019,03,29,14,36,14.10
2019,03,29,14,37,14.10
2019,03,29,14,38,14.20
2019,03,29,14,39,14.30
2019,03,29,14,40,14.30
2019,03,29,14,41,14.30
2019,03,29,14,42,14.30
2019,03,29,14,43,14.20
2019,03,29,14,44,14.20
2019,03,29,14,45,14.20
2019,03,29,14,46,14.30
2019,03,29,14,47,14.30
2019,03,29,14,48,14.50
2019,03,29,14,49,14.60
2019,03,29,14,50,14.50
2019,03,29,14,51,14.50
2019,03,29,14,52,14.50
2019,03,29,14,53,14.50
2019,03,29,14,54,14.40
2019,03,29,14,55,14.40
2019,03,29,14,56,14.40
2019,03,29,14,57,14.50
2019,03,29,14,58,14.60
2019,03,29,14,59,14.60
2019,03,29,15,00,14.60
2019,03,29,15,01,14.50
2019,03,29,15,02,14.40
2019,03,29,15,03,14.40
2019,03,29,15,04,14.50
2019,03,29,15,05,14.50
2019,03,29,15,06,14.50
2019,03,29,15,07,14.40
2019,03,29,15,08,14.30
2019,03,29,15,09,14.20
2019,03,29,15,10,14.20
2019,03,29,15,11,14.20
2019,03,29,15,12,14.20
2019,03,29,15,13,14.20
2019,03,29,15,14,14.20
2019,03,29,15,15,14.30
2019,03,29,15,16,14.30
2019,03,29,15,17,14.40
2019,03,29,15,18,14.40
2019,03,29,15,19,14.40
2019,03,29,15,20,14.40
2019,03,29,15,21,14.40
2019,03,29,15,22,14.40
2019,03,29,15,23,14.40
2019,03,29,15,24,14.50
2019,03,29,15,25,14.60
2019,03,29,15,26,14.70
2019,03,29,15,27,14.70
2019,03,29,15,28,14.80
2019,03,29,15,29,14.90
2019,03,29,15,30,15.00
2019,03,29,15,31,15.00
2019,03,29,15,32,15.00
2019,03,29,15,33,15.00
2019,03,29,15,34,15.00
2019,03,29,15,35,15.00
2019,03,29,15,36,15.00
2019,03,29,15,37,15.00
2019,03,29,15,38,15.00
2019,03,29,15,39,15.00
2019,03,29,15,40,15.00
2019,03,29,15,41,15.00
2019,03,29,15,42,15.00
2019,03,29,15,43,15.00
2019,03,29,15,44,15.00
2019,03,29,15,45,15.00
2019,03,29,15,46,15.00
2019,03,29,15,47,15.00
2019,03,29,15,48,15.10
2019,03,29,15,49,15.20
2019,03,29,15,50,15.10
2019,03,29,15,51,15.10
2019,03,29,15,52,15.10
2019,03,29,15,53,15.00
2019,03,29,15,54,15.00
2019,03,29,15,55,15.00
2019,03,29,15,56,15.00
2019,03,29,15,57,15.00
2019,03,29,15,58,14.90
2019,03,29,15,59,14.80
2019,03,29,16,00,14.80
2019,03,29,16,01,14.80
2019,03,29,16,02,14.80
2019,03,29,16,03,14.90
2019,03,29,16,04,15.00
2019,03,29,16,05,15.00
2019,03,29,16,06,15.00
2019,03,29,16,07,15.10
2019,03,29,16,08,15.10
2019,03,29,16,09,15.10
2019,03,29,16,10,15.10
2019,03,29,16,11,15.00
2019,03,29,16,12,15.00
2019,03,29,16,13,15.00
2019,03,29,16,14,15.00
2019,03,29,16,15,15.00
2019,03,29,16,16,15.00
2019,03,29,16,17,15.00
2019,03,29,16,18,15.10
2019,03,29,16,19,15.20
2019,03,29,16,20,15.20
2019,03,29,16,21,15.20
2019,03,29,16,22,15.30
2019,03,29,16,23,15.30
2019,03,29,16,24,15.30
2019,03,29,16,25,15.40
2019,03,29,16,26,15.40
2019,03,29,16,27,15.50
2019,03,29,16,28,15.50
2019,03,29,16,29,15.50
2019,03,29,16,30,15.60
2019,03,29,16,31,15.60
2019,03,29,16,32,15.60
2019,03,29,16,33,15.60
2019,03,29,16,34,15.60
2019,03,29,16,35,15.60
2019,03,29,16,36,15.50
2019,03,29,16,37,15.50
2019,03,29,16,38,15.50
2019,03,29,16,39,15.60
2019,03,29,16,40,15.60
2019,03,29,16,41,15.70
2019,03,29,16,42,15.70
2019,03,29,16,43,15.70
2019,03,29,16,44,15.80
2019,03,29,16,45,15.80
2019,03,29,16,46,15.70
2019,03,29,16,47,15.60
2019,03,29,16,48,15.60
2019,03,29,16,49,15.60
2019,03,29,16,50,15.60
2019,03,29,16,51,15.60
2019,03,29,16,52,15.60
2019,03,29,16,53,15.60
2019,03,29,16,54,15.60
2019,03,29,16,55,15.70
2019,03,29,16,56,15.70
2019,03,29,16,57,15.80
2019,03,29,16,58,15.80
2019,03,29,16,59,15.80
2019,03,29,17,00,15.90
2019,03,29,17,01,15.90
2019,03,29,17,02,15.90
2019,03,29,17,03,15.90
2019,03,29,17,04,15.90
2019,03,29,17,05,16.00
2019,03,29,17,06,16.10
2019,03,29,17,07,16.10
2019,03,29,17,08,16.10
2019,03,29,17,09,16.20
2019,03,29,17,10,16.20
2019,03,29,17,11,16.20
2019,03,29,17,12,16.20
2019,03,29,17,13,16.20
2019,03,29,17,14,16.20
2019,03,29,17,15,16.20
2019,03,29,17,16,16.10
2019,03,29,17,17,16.00
2019,03,29,17,18,16.00
2019,03,29,17,19,16.00
2019,03,29,17,20,16.10
2019,03,29,17,21,16.10
2019,03,29,17,22,16.10
2019,03,29,17,23,16.10
2019,03,29,17,24,16.20
2019,03,29,17,25,16.20
2019,03,29,17,26,16.20
2019,03,29,17,27,16.20
2019,03,29,17,28,16.20
2019,03,29,17,29,16.20
2019,03,29,17,30,16.20
2019,03,29,17,31,16.20
2019,03,29,17,32,16.30
2019,03,29,17,33,16.30
2019,03,29,17,34,16.30
2019,03,29,17,35,16.30
2019,03,29,17,36,16.30
2019,03,29,17,37,16.30
2019,03,29,17,38,16.30
2019,03,29,17,39,16.30
2019,03,29,17,40,16.20
2019,03,29,17,41,16.10
2019,03,29,17,42,16.10
2019,03,29,17,43,16.10